EW9394 Weather Reports


time (UTC)temp
C
wind
direction
speed
KPH
gust
KPH
rain 1hr
cm
rain 24hr
cm
rain mn
cm
humidity
%
barometer
mb
20260901110227 26 192 0.0 0.0 0.00 0.00 0.00 72 1017.2
20260901105723 27 197 0.0 0.0 0.00 0.00 0.00 72 1017.3
20260901105223 27 197 0.0 0.0 0.00 0.00 0.00 71 1017.3
20260901104719 27 198 0.0 0.0 0.00 0.00 0.00 71 1017.4
20260901104215 27 179 1.6 3.2 0.00 0.00 0.00 71 1017.1
20260901103714 27 194 0.0 0.0 0.00 0.00 0.00 71 1017.4
20260901103209 27 183 1.6 1.6 0.00 0.00 0.00 71 1017.3
20260901102704 27 182 1.6 3.2 0.00 0.00 0.00 70 1017.7
20260901102203 27 201 1.6 1.6 0.00 0.00 0.00 70 1017.4
20260901101659 27 193 0.0 0.0 0.00 0.00 0.00 70 1017.3
20260901101158 27 182 0.0 1.6 0.00 0.00 0.00 70 1017.6
20260901100653 27 201 1.6 1.6 0.00 0.00 0.00 69 1017.4
20260901100147 27 187 0.0 0.0 0.00 0.00 0.00 69 1017.5
20260901095646 27 193 0.0 0.0 0.00 0.00 0.00 69 1017.6
20260901095144 27 185 0.0 1.6 0.00 0.00 0.00 68 1017.5
20260901094639 27 192 0.0 1.6 0.00 0.00 0.00 68 1017.6
20260901094138 27 200 1.6 1.6 0.00 0.00 0.00 68 1017.5
20260901093633 27 146 0.0 1.6 0.00 0.00 0.00 67 1017.4
20260901093127 27 198 0.0 0.0 0.00 0.00 0.00 67 1017.5
20260901092623 27 179 0.0 0.0 0.00 0.00 0.00 67 1017.6
20260901092119 27 133 0.0 0.0 0.00 0.00 0.00 67 1017.6
20260901091614 27 149 0.0 1.6 0.00 0.00 0.00 66 1017.7
20260901091109 27 183 0.0 0.0 0.00 0.00 0.00 66 1017.6
20260901090609 28 176 1.6 1.6 0.00 0.00 0.00 65 1017.4
20260901090105 28 189 0.0 1.6 0.00 0.00 0.00 65 1017.2
20260901085600 28 187 0.0 0.0 0.00 0.00 0.00 65 1017.3
20260901085056 28 190 1.6 1.6 0.00 0.00 0.00 64 1017.2
20260901084552 28 192 1.6 3.2 0.00 0.00 0.00 64 1017.2
20260901084048 28 194 1.6 1.6 0.00 0.00 0.00 63 1017.3
20260901083548 28 196 0.0 1.6 0.00 0.00 0.00 63 1017.2
20260901083046 28 162 1.6 1.6 0.00 0.00 0.00 63 1017.1
20260901082541 28 185 0.0 1.6 0.00 0.00 0.00 62 1017.3
20260901082037 28 198 1.6 1.6 0.00 0.00 0.00 62 1017.0
20260901081531 28 199 1.6 1.6 0.00 0.00 0.00 62 1017.2
20260901081026 28 197 0.0 1.6 0.00 0.00 0.00 62 1017.3
20260901080525 28 204 4.8 4.8 0.00 0.00 0.00 61 1017.3
20260901080020 28 181 3.2 3.2 0.00 0.00 0.00 61 1017.1
20260901075516 28 195 0.0 1.6 0.00 0.00 0.00 61 1017.1
20260901075015 28 183 1.6 1.6 0.00 0.00 0.00 61 1017.1
20260901074514 28 177 3.2 4.8 0.00 0.00 0.00 61 1017.0
20260901074009 28 193 1.6 3.2 0.00 0.00 0.00 62 1017.1
20260901073507 28 193 1.6 1.6 0.00 0.00 0.00 62 1017.0
20260901073001 29 189 1.6 1.6 0.00 0.00 0.00 61 1017.3
20260901072456 29 144 3.2 3.2 0.00 0.00 0.00 61 1017.3
20260901071951 29 166 1.6 3.2 0.00 0.00 0.00 61 1017.0
20260901071450 29 189 1.6 1.6 0.00 0.00 0.00 62 1017.0
20260901070949 29 188 0.0 1.6 0.00 0.00 0.00 62 1017.1
20260901070445 29 173 1.6 1.6 0.00 0.00 0.00 61 1017.1
20260901065943 29 205 1.6 3.2 0.00 0.00 0.00 61 1017.1
20260901065439 30 190 0.0 0.0 0.00 0.00 0.00 61 1017.1
20260901064934 30 161 1.6 1.6 0.00 0.00 0.00 60 1017.0
20260901064431 30 186 1.6 3.2 0.00 0.00 0.00 60 1016.9
20260901063927 30 189 0.0 1.6 0.00 0.00 0.00 60 1016.8
20260901063424 30 180 0.0 1.6 0.00 0.00 0.00 60 1017.0
20260901062920 30 175 0.0 1.6 0.00 0.00 0.00 59 1016.9
20260901062415 30 182 0.0 1.6 0.00 0.00 0.00 59 1017.0
20260901061911 30 178 3.2 4.8 0.00 0.00 0.00 59 1016.8
20260901061407 30 148 3.2 3.2 0.00 0.00 0.00 58 1016.8
20260901060901 30 170 0.0 0.0 0.00 0.00 0.00 57 1016.8
20260901060357 30 178 1.6 1.6 0.00 0.00 0.00 57 1016.7
20260901055856 30 203 1.6 3.2 0.00 0.00 0.00 57 1016.6
20260901055353 30 176 1.6 3.2 0.00 0.00 0.00 56 1016.6
20260901054849 30 182 3.2 3.2 0.00 0.00 0.00 56 1016.7
20260901054346 30 174 3.2 3.2 0.00 0.00 0.00 55 1016.5
20260901053842 30 115 9.7 12.9 0.00 0.00 0.00 55 1016.4
20260901053337 30 169 8.0 9.7 0.00 0.00 0.00 55 1016.3
20260901052833 30 120 1.6 3.2 0.00 0.00 0.00 55 1016.4
20260901052328 30 152 3.2 4.8 0.00 0.00 0.00 54 1016.3
20260901051826 30 139 4.8 8.0 0.00 0.00 0.00 54 1016.1
20260901051322 31 171 4.8 8.0 0.00 0.00 0.00 53 1016.3
20260901050817 31 167 4.8 9.7 0.00 0.00 0.00 53 1016.3
20260901050313 30 180 1.6 1.6 0.00 0.00 0.00 54 1016.3
20260901045808 30 156 1.6 1.6 0.00 0.00 0.00 54 1016.1
20260901045302 30 166 0.0 1.6 0.00 0.00 0.00 55 1016.1
20260901044757 30 158 0.0 1.6 0.00 0.00 0.00 55 1016.0
20260901044253 30 190 0.0 0.0 0.00 0.00 0.00 56 1016.2
20260901043749 30 190 0.0 0.0 0.00 0.00 0.00 57 1016.0
20260901043244 30 181 0.0 0.0 0.00 0.00 0.00 56 1016.2
20260901042738 30 189 0.0 0.0 0.00 0.00 0.00 55 1016.2
20260901042238 30 182 0.0 0.0 0.00 0.00 0.00 55 1016.1
20260901041734 30 138 0.0 0.0 0.00 0.00 0.00 55 1016.0
20260901041234 30 204 0.0 0.0 0.00 0.00 0.00 54 1016.0
20260901040729 30 198 0.0 0.0 0.00 0.00 0.00 53 1015.6
20260901040228 31 192 0.0 0.0 0.00 0.00 0.00 52 1016.0
20260901035727 30 184 0.0 0.0 0.00 0.00 0.00 52 1015.9
20260901035226 31 191 0.0 0.0 0.00 0.00 0.00 52 1016.0
20260901034725 31 179 0.0 0.0 0.00 0.00 0.00 51 1016.0
20260901034220 31 160 0.0 0.0 0.00 0.00 0.00 50 1015.8
20260901033720 31 175 0.0 0.0 0.00 0.00 0.00 50 1015.8
20260901033219 30 200 0.0 0.0 0.00 0.00 0.00 50 1015.8
20260901032718 31 200 0.0 0.0 0.00 0.00 0.00 49 1015.8
20260901032212 31 199 0.0 0.0 0.00 0.00 0.00 48 1015.8
20260901031708 31 196 0.0 0.0 0.00 0.00 0.00 47 1015.9
20260901031203 31 199 0.0 0.0 0.00 0.00 0.00 47 1015.7
20260901030658 32 202 1.6 1.6 0.00 0.00 0.00 46 1015.8
20260901030153 32 203 0.0 0.0 0.00 0.00 0.00 46 1015.8
20260901025648 32 196 0.0 0.0 0.00 0.00 0.00 46 1015.6
20260901025143 32 195 0.0 0.0 0.00 0.00 0.00 46 1015.7
20260901024642 32 199 0.0 0.0 0.00 0.00 0.00 46 1015.4
20260901024141 32 197 0.0 0.0 0.00 0.00 0.00 45 1015.5
20260901023640 32 195 0.0 0.0 0.00 0.00 0.00 45 1015.4
20260901023135 32 200 0.0 0.0 0.00 0.00 0.00 44 1015.4
20260901022630 32 202 1.6 1.6 0.00 0.00 0.00 44 1015.1
20260901022126 32 197 0.0 0.0 0.00 0.00 0.00 44 1015.3
20260901021621 33 201 0.0 0.0 0.00 0.00 0.00 43 1015.1
20260901021116 33 191 0.0 1.6 0.00 0.00 0.00 43 1014.9
20260901020612 33 192 0.0 0.0 0.00 0.00 0.00 42 1015.0
20260901020107 33 193 0.0 1.6 0.00 0.00 0.00 42 1015.0
20260901015603 33 201 0.0 0.0 0.00 0.00 0.00 43 1015.1
20260901015102 33 187 0.0 0.0 0.00 0.00 0.00 42 1015.1
20260901014557 33 211 1.6 1.6 0.00 0.00 0.00 42 1015.1
20260901014053 33 195 0.0 1.6 0.00 0.00 0.00 42 1015.0
20260901013549 33 199 0.0 1.6 0.00 0.00 0.00 42 1015.0
20260901013045 33 190 0.0 1.6 0.00 0.00 0.00 42 1014.8
20260901012544 33 200 0.0 1.6 0.00 0.00 0.00 43 1014.9
20260901012039 34 171 0.0 1.6 0.00 0.00 0.00 43 1014.9
20260901011536 34 192 0.0 1.6 0.00 0.00 0.00 42 1014.6
20260901011033 35 176 1.6 1.6 0.00 0.00 0.00 41 1014.5
20260901010528 35 191 0.0 0.0 0.00 0.00 0.00 41 1014.8
20260901010022 35 168 1.6 1.6 0.00 0.00 0.00 40 1014.8
20260901005522 35 168 1.6 1.6 0.00 0.00 0.00 40 1014.6
20260901005018 35 168 1.6 1.6 0.00 0.00 0.00 39 1014.8
20260901004518 35 184 0.0 0.0 0.00 0.00 0.00 39 1014.5
20260901004013 35 151 3.2 3.2 0.00 0.00 0.00 39 1014.6
20260901003508 36 122 4.8 4.8 0.00 0.00 0.00 38 1014.6
20260901003006 36 160 4.8 4.8 0.00 0.00 0.00 38 1014.5
20260901002505 36 170 4.8 4.8 0.00 0.00 0.00 38 1014.7
20260901002000 36 114 4.8 4.8 0.00 0.00 0.00 37 1014.7
20260901001455 36 87 3.2 3.2 0.00 0.00 0.00 36 1014.5
20260901000951 36 97 1.6 1.6 0.00 0.00 0.00 36 1014.6
20260901000445 36 153 0.0 1.6 0.00 0.00 0.00 36 1014.7
20260831235944 37 195 0.0 0.0 0.00 0.00 0.00 36 1014.4
20260831235440 37 185 1.6 1.6 0.00 0.00 0.00 35 1014.5
20260831234935 37 193 3.2 3.2 0.00 0.00 0.00 35 1014.4
20260831234429 37 173 4.8 8.0 0.00 0.00 0.00 35 1014.8
20260831233925 37 151 1.6 3.2 0.00 0.00 0.00 35 1014.7
20260831233420 37 175 3.2 3.2 0.00 0.00 0.00 34 1014.7
20260831232915 37 147 3.2 4.8 0.00 0.00 0.00 34 1014.6
20260831232411 37 108 1.6 1.6 0.00 0.00 0.00 35 1014.4
20260831231907 37 210 3.2 3.2 0.00 0.00 0.00 33 1014.5
20260831231403 37 198 0.0 0.0 0.00 0.00 0.00 33 1014.6
20260831230858 37 139 1.6 3.2 0.00 0.00 0.00 33 1014.5
20260831230353 37 205 0.0 0.0 0.00 0.00 0.00 33 1014.4
20260831225847 37 223 1.6 1.6 0.00 0.00 0.00 32 1014.5
20260831225342 38 170 1.6 1.6 0.00 0.00 0.00 32 1014.5
20260831224837 37 156 1.6 3.2 0.00 0.00 0.00 33 1014.8
20260831224332 38 125 1.6 1.6 0.00 0.00 0.00 33 1014.7
20260831223827 38 200 1.6 1.6 0.00 0.00 0.00 33 1014.7
20260831223324 37 164 3.2 3.2 0.00 0.00 0.00 33 1014.9
20260831222820 38 112 1.6 4.8 0.00 0.00 0.00 33 1015.0
20260831222316 38 202 3.2 8.0 0.00 0.00 0.00 32 1015.2
20260831221811 38 160 1.6 3.2 0.00 0.00 0.00 33 1015.0
20260831221306 38 207 0.0 0.0 0.00 0.00 0.00 34 1015.2
20260831220806 38 199 0.0 0.0 0.00 0.00 0.00 34 1015.0
20260831220301 38 68 1.6 1.6 0.00 0.00 0.00 33 1014.9
20260831215756 37 136 4.8 4.8 0.00 0.00 0.00 33 1015.1
20260831215252 37 167 0.0 1.6 0.00 0.00 0.00 35 1015.0
20260831214749 37 195 0.0 1.6 0.00 0.00 0.00 35 1015.3
20260831214246 37 187 1.6 1.6 0.00 0.00 0.00 34 1015.2
20260831213741 37 80 4.8 8.0 0.00 0.00 0.00 33 1015.3
20260831213238 38 202 3.2 3.2 0.00 0.00 0.00 33 1015.4
20260831212737 38 80 1.6 1.6 0.00 0.00 0.00 34 1015.3
20260831212235 38 156 1.6 3.2 0.00 0.00 0.00 33 1015.2
20260831211732 38 167 3.2 3.2 0.00 0.00 0.00 33 1015.4
20260831211228 38 196 1.6 3.2 0.00 0.00 0.00 35 1015.5
20260831210722 38 88 3.2 3.2 0.00 0.00 0.00 35 1015.7
20260831210219 38 159 4.8 8.0 0.00 0.00 0.00 34 1015.5
20260831205718 38 194 4.8 8.0 0.00 0.00 0.00 34 1015.7
20260831205215 38 181 3.2 3.2 0.00 0.00 0.00 34 1015.8
20260831204714 37 106 3.2 3.2 0.00 0.00 0.00 35 1016.0
20260831204214 37 158 3.2 3.2 0.00 0.00 0.00 35 1016.0
20260831203708 38 65 0.0 1.6 0.00 0.00 0.00 34 1016.0
20260831203208 37 195 0.0 0.0 0.00 0.00 0.00 34 1016.1
20260831202706 38 63 3.2 3.2 0.00 0.00 0.00 34 1016.0
20260831202201 38 36 3.2 3.2 0.00 0.00 0.00 34 1016.2
20260831201655 38 52 1.6 1.6 0.00 0.00 0.00 32 1016.1
20260831201154 37 183 3.2 3.2 0.00 0.00 0.00 33 1016.4
20260831200651 37 183 0.0 0.0 0.00 0.00 0.00 34 1016.2
20260831200150 37 226 4.8 8.0 0.00 0.00 0.00 36 1016.5
20260831195646 37 115 1.6 3.2 0.00 0.00 0.00 36 1016.5
20260831195141 37 131 1.6 1.6 0.00 0.00 0.00 37 1016.6
20260831194636 37 220 6.4 9.7 0.00 0.00 0.00 37 1016.6
20260831194131 37 123 3.2 3.2 0.00 0.00 0.00 36 1016.7
20260831193626 37 67 1.6 3.2 0.00 0.00 0.00 36 1016.8
20260831193121 38 132 4.8 8.0 0.00 0.00 0.00 36 1017.1
20260831192616 37 128 1.6 1.6 0.00 0.00 0.00 37 1017.0
20260831192112 36 195 8.0 9.7 0.00 0.00 0.00 38 1016.9
20260831191608 36 125 6.4 9.7 0.00 0.00 0.00 38 1016.8
20260831191103 37 188 0.0 1.6 0.00 0.00 0.00 39 1017.0
20260831190558 37 2 3.2 3.2 0.00 0.00 0.00 38 1017.2
20260831190056 37 131 3.2 3.2 0.00 0.00 0.00 38 1017.0
20260831185553 37 118 4.8 8.0 0.00 0.00 0.00 38 1017.2
20260831185048 38 128 3.2 4.8 0.00 0.00 0.00 36 1017.3
20260831184548 38 226 4.8 4.8 0.00 0.00 0.00 37 1017.0
20260831184044 37 173 3.2 4.8 0.00 0.00 0.00 36 1017.3
20260831183542 37 224 1.6 1.6 0.00 0.00 0.00 38 1017.3
20260831183037 37 162 0.0 1.6 0.00 0.00 0.00 38 1017.6
20260831182536 37 129 11.3 17.7 0.00 0.00 0.00 37 1017.6
20260831182032 37 76 3.2 3.2 0.00 0.00 0.00 39 1017.5
20260831181527 36 182 3.2 4.8 0.00 0.00 0.00 39 1017.5
20260831181026 37 199 4.8 4.8 0.00 0.00 0.00 38 1017.9
20260831180521 37 146 6.4 9.7 0.00 0.00 0.00 39 1017.8
20260831180016 37 141 6.4 12.9 0.00 0.00 0.00 38 1017.8
20260831175512 36 85 4.8 4.8 0.00 0.00 0.00 41 1018.0
20260831175008 36 187 1.6 1.6 0.00 0.00 0.00 42 1018.0
20260831174503 36 198 9.7 11.3 0.00 0.00 0.00 42 1018.2
20260831174002 36 190 3.2 4.8 0.00 0.00 0.00 43 1018.2
20260831173501 37 191 3.2 3.2 0.00 0.00 0.00 43 1018.3
20260831172957 36 168 4.8 4.8 0.00 0.00 0.00 44 1018.5
20260831172452 36 271 3.2 3.2 0.00 0.00 0.00 43 1018.4
20260831171948 35 119 0.0 1.6 0.00 0.00 0.00 45 1018.4
20260831171443 35 175 8.0 9.7 0.00 0.00 0.00 44 1018.4
20260831170940 35 217 3.2 4.8 0.00 0.00 0.00 44 1018.7
20260831170436 35 197 6.4 8.0 0.00 0.00 0.00 46 1018.5
20260831165933 35 201 9.7 12.9 0.00 0.00 0.00 45 1018.6
20260831165428 36 180 11.3 16.1 0.00 0.00 0.00 44 1018.5
20260831164924 35 219 3.2 4.8 0.00 0.00 0.00 44 1018.4
20260831164420 35 171 1.6 1.6 0.00 0.00 0.00 45 1018.5
20260831163915 35 165 3.2 3.2 0.00 0.00 0.00 46 1018.6
20260831163411 35 128 4.8 4.8 0.00 0.00 0.00 47 1018.7
20260831162909 34 200 4.8 8.0 0.00 0.00 0.00 48 1018.7
20260831162405 34 191 6.4 8.0 0.00 0.00 0.00 49 1018.7
20260831161903 33 192 0.0 1.6 0.00 0.00 0.00 49 1019.0
20260831161400 34 198 8.0 9.7 0.00 0.00 0.00 48 1018.7
20260831160855 34 177 6.4 9.7 0.00 0.00 0.00 48 1019.0
20260831160349 33 200 8.0 9.7 0.00 0.00 0.00 48 1018.6
20260831155845 33 175 1.6 1.6 0.00 0.00 0.00 49 1018.7
20260831155344 33 200 3.2 8.0 0.00 0.00 0.00 50 1019.0
20260831154840 33 236 1.6 3.2 0.00 0.00 0.00 50 1018.6
20260831154337 33 183 9.7 11.3 0.00 0.00 0.00 50 1019.1
20260831153835 32 179 3.2 3.2 0.00 0.00 0.00 51 1018.6
20260831153331 32 236 3.2 3.2 0.00 0.00 0.00 52 1018.8
20260831152827 32 203 3.2 3.2 0.00 0.00 0.00 51 1018.8
20260831152322 32 188 3.2 4.8 0.00 0.00 0.00 52 1018.6
20260831151817 32 230 8.0 11.3 0.00 0.00 0.00 52 1018.9
20260831151316 32 276 1.6 3.2 0.00 0.00 0.00 55 1018.8
20260831150812 31 193 4.8 8.0 0.00 0.00 0.00 54 1018.6
20260831150307 31 189 4.8 8.0 0.00 0.00 0.00 54 1018.9
20260831145806 31 176 3.2 3.2 0.00 0.00 0.00 56 1018.8
20260831145306 31 177 3.2 3.2 0.00 0.00 0.00 56 1018.5
20260831144758 31 179 3.2 4.8 0.00 0.00 0.00 58 1018.4
20260831144254 30 250 1.6 3.2 0.00 0.00 0.00 58 1018.7
20260831143754 30 188 8.0 9.7 0.00 0.00 0.00 58 1018.7
20260831143249 30 169 4.8 4.8 0.00 0.00 0.00 61 1018.5
20260831142744 30 173 1.6 3.2 0.00 0.00 0.00 62 1018.3
20260831142240 30 166 6.4 8.0 0.00 0.00 0.00 61 1018.5
20260831141739 30 188 0.0 0.0 0.00 0.00 0.00 64 1018.5
20260831141234 30 174 1.6 3.2 0.00 0.00 0.00 65 1018.4
20260831140734 29 217 3.2 4.8 0.00 0.00 0.00 66 1018.6
20260831140228 28 200 3.2 4.8 0.00 0.00 0.00 67 1018.5
20260831135726 28 159 6.4 8.0 0.00 0.00 0.00 68 1018.4
20260831135222 28 183 1.6 1.6 0.00 0.00 0.00 70 1018.6
20260831134718 27 192 6.4 8.0 0.00 0.00 0.00 71 1018.4
20260831134214 27 203 1.6 1.6 0.00 0.00 0.00 72 1018.3
20260831133713 27 177 1.6 3.2 0.00 0.00 0.00 72 1018.4
20260831133207 27 149 3.2 4.8 0.00 0.00 0.00 72 1018.4
20260831132703 27 195 0.0 1.6 0.00 0.00 0.00 73 1018.3
20260831132202 27 188 1.6 1.6 0.00 0.00 0.00 73 1018.0
20260831131657 26 187 1.6 1.6 0.00 0.00 0.00 74 1018.1
20260831131154 26 194 0.0 0.0 0.00 0.00 0.00 74 1017.9
20260831130649 26 139 1.6 1.6 0.00 0.00 0.00 75 1017.8
20260831130144 26 192 0.0 1.6 0.00 0.00 0.00 75 1018.0
20260831125642 26 184 1.6 1.6 0.00 0.00 0.00 75 1018.0
20260831125138 26 198 1.6 1.6 0.00 0.00 0.00 75 1017.8
20260831124634 26 195 0.0 0.0 0.00 0.00 0.00 75 1017.9
20260831124130 26 194 0.0 0.0 0.00 0.00 0.00 75 1017.5
20260831123629 25 186 0.0 1.6 0.00 0.00 0.00 75 1017.6
20260831123129 25 196 0.0 0.0 0.00 0.00 0.00 75 1017.5
20260831122628 25 181 0.0 1.6 0.00 0.00 0.00 75 1017.5
20260831122125 25 197 0.0 1.6 0.00 0.00 0.00 75 1017.4
20260831121623 26 190 0.0 1.6 0.00 0.00 0.00 74 1017.4
20260831121120 26 199 0.0 1.6 0.00 0.00 0.00 74 1017.4
20260831120615 26 193 0.0 1.6 0.00 0.00 0.00 74 1017.2
20260831120110 26 194 0.0 0.0 0.00 0.00 0.00 73 1017.2
20260831115606 26 182 1.6 1.6 0.00 0.00 0.00 72 1017.2
20260831115101 26 175 1.6 1.6 0.00 0.00 0.00 72 1016.8
20260831114600 26 193 0.0 0.0 0.00 0.00 0.00 72 1017.0
20260831114055 26 174 1.6 1.6 0.00 0.00 0.00 72 1016.8
20260831113554 27 184 0.0 0.0 0.00 0.00 0.00 71 1016.9
20260831113050 27 189 0.0 1.6 0.00 0.00 0.00 71 1016.7
20260831112549 27 196 0.0 1.6 0.00 0.00 0.00 71 1016.7
20260831112044 27 217 1.6 1.6 0.00 0.00 0.00 71 1016.5
20260831111540 27 202 1.6 1.6 0.00 0.00 0.00 71 1016.7
20260831111036 27 195 0.0 0.0 0.00 0.00 0.00 70 1016.5
20260831110531 27 179 1.6 1.6 0.00 0.00 0.00 70 1016.5